| time (UTC) | temp F | wind direction | speed MPH | gust MPH | rain 1hr in | rain 24hr in | rain mn in | humidity % | barometer mb |
| 20260505073516 | 54 | 292 | 5.0 | 11.0 | 0.00 | 0.01 | 0.00 | 60 | 999.9 |
| 20260505073017 | 54 | 301 | 8.0 | 12.0 | 0.00 | 0.01 | 0.00 | 60 | 1000.2 |
| 20260505072516 | 54 | 288 | 7.0 | 13.0 | 0.00 | 0.01 | 0.00 | 61 | 1000.2 |
| 20260505072017 | 54 | 281 | 6.0 | 13.0 | 0.00 | 0.01 | 0.00 | 60 | 1000.0 |
| 20260505071517 | 55 | 287 | 5.0 | 9.0 | 0.00 | 0.01 | 0.00 | 64 | 1000.3 |
| 20260505071017 | 55 | 274 | 4.0 | 13.0 | 0.00 | 0.01 | 0.00 | 64 | 1000.2 |
| 20260505070516 | 55 | 274 | 8.0 | 13.0 | 0.00 | 0.01 | 0.00 | 64 | 1000.6 |
| 20260505070018 | 55 | 277 | 7.0 | 11.0 | 0.00 | 0.01 | 0.00 | 63 | 1000.6 |
| 20260505065516 | 55 | 287 | 5.0 | 11.0 | 0.00 | 0.01 | 0.00 | 64 | 1000.2 |
| 20260505065016 | 56 | 291 | 7.0 | 13.0 | 0.00 | 0.01 | 0.00 | 65 | 999.9 |
| 20260505064516 | 56 | 269 | 6.0 | 13.0 | 0.00 | 0.01 | 0.00 | 66 | 999.9 |
| 20260505064037 | 56 | 260 | 6.0 | 9.0 | 0.00 | 0.01 | 0.00 | 66 | 999.8 |
| 20260505063516 | 56 | 261 | 5.0 | 13.0 | 0.00 | 0.01 | 0.00 | 65 | 999.4 |
| 20260505063017 | 56 | 265 | 7.0 | 13.0 | 0.00 | 0.01 | 0.00 | 65 | 999.6 |
| 20260505062517 | 56 | 272 | 5.0 | 9.0 | 0.00 | 0.01 | 0.00 | 67 | 999.9 |
| 20260505062016 | 56 | 280 | 5.0 | 9.0 | 0.00 | 0.01 | 0.00 | 70 | 999.9 |
| 20260505061517 | 57 | 264 | 4.0 | 9.0 | 0.00 | 0.01 | 0.00 | 71 | 999.8 |
| 20260505061016 | 57 | 272 | 5.0 | 8.0 | 0.00 | 0.01 | 0.00 | 71 | 999.8 |
| 20260505060536 | 57 | 280 | 5.0 | 11.0 | 0.00 | 0.01 | 0.00 | 71 | 999.8 |
| 20260505060057 | 57 | 281 | 5.0 | 11.0 | 0.00 | 0.01 | 0.00 | 72 | 999.7 |
| 20260505055518 | 57 | 271 | 6.0 | 12.0 | 0.00 | 0.01 | 0.00 | 72 | 999.4 |
| 20260505055018 | 57 | 271 | 7.0 | 12.0 | 0.00 | 0.01 | 0.00 | 72 | 999.3 |
| 20260505054518 | 58 | 266 | 6.0 | 12.0 | 0.00 | 0.01 | 0.00 | 72 | 999.0 |
| 20260505054016 | 58 | 275 | 7.0 | 16.0 | 0.00 | 0.01 | 0.00 | 72 | 999.1 |
| 20260505053516 | 59 | 274 | 8.0 | 16.0 | 0.00 | 0.01 | 0.00 | 72 | 999.0 |
| 20260505053018 | 59 | 276 | 8.0 | 15.0 | 0.00 | 0.01 | 0.00 | 72 | 998.9 |
| 20260505052516 | 59 | 274 | 7.0 | 13.0 | 0.00 | 0.01 | 0.00 | 75 | 998.7 |
| 20260505052016 | 59 | 275 | 7.0 | 13.0 | 0.00 | 0.01 | 0.00 | 76 | 998.7 |
| 20260505051517 | 58 | 274 | 6.0 | 11.0 | 0.00 | 0.01 | 0.00 | 78 | 998.7 |
| 20260505051016 | 58 | 262 | 7.0 | 12.0 | 0.00 | 0.01 | 0.00 | 80 | 998.6 |
| 20260505050516 | 58 | 253 | 6.0 | 12.0 | 0.00 | 0.01 | 0.00 | 81 | 998.5 |
| 20260505041516 | 59 | 175 | 2.0 | 6.0 | 0.01 | 0.01 | 0.00 | 79 | 997.9 |
| 20260505041016 | 59 | 195 | 3.0 | 7.0 | 0.01 | 0.01 | 0.00 | 78 | 998.0 |
| 20260505040516 | 60 | 180 | 3.0 | 9.0 | 0.01 | 0.01 | 0.00 | 77 | 997.9 |
| 20260505040016 | 60 | 180 | 3.0 | 9.0 | 0.01 | 0.01 | 0.01 | 76 | 998.1 |
| 20260505035515 | 60 | 179 | 5.0 | 9.0 | 0.01 | 0.01 | 0.01 | 74 | 998.1 |
| 20260505035017 | 61 | 227 | 4.0 | 10.0 | 0.01 | 0.01 | 0.01 | 72 | 998.3 |
| 20260505034537 | 61 | 306 | 5.0 | 10.0 | 0.00 | 0.00 | 0.00 | 72 | 998.8 |
| 20260505034017 | 61 | 278 | 5.0 | 9.0 | 0.00 | 0.00 | 0.00 | 72 | 998.8 |
| 20260505033518 | 61 | 234 | 4.0 | 8.0 | 0.00 | 0.00 | 0.00 | 70 | 998.3 |
| 20260505033017 | 61 | 251 | 4.0 | 11.0 | 0.00 | 0.00 | 0.00 | 70 | 998.2 |
| 20260505032517 | 61 | 229 | 5.0 | 11.0 | 0.00 | 0.00 | 0.00 | 70 | 998.0 |
| 20260505032017 | 61 | 207 | 3.0 | 9.0 | 0.00 | 0.00 | 0.00 | 70 | 997.8 |
| 20260505031538 | 61 | 202 | 4.0 | 10.0 | 0.00 | 0.00 | 0.00 | 69 | 997.7 |
| 20260505031017 | 61 | 206 | 6.0 | 11.0 | 0.00 | 0.00 | 0.00 | 69 | 997.6 |
| 20260505030517 | 61 | 184 | 5.0 | 14.0 | 0.00 | 0.00 | 0.00 | 68 | 997.5 |
| 20260505030018 | 61 | 176 | 5.0 | 14.0 | 0.00 | 0.00 | 0.00 | 68 | 997.4 |
| 20260505025516 | 62 | 189 | 6.0 | 14.0 | 0.00 | 0.00 | 0.00 | 67 | 997.4 |
| 20260505025017 | 62 | 197 | 5.0 | 11.0 | 0.00 | 0.00 | 0.00 | 67 | 997.2 |
| 20260505024516 | 62 | 198 | 5.0 | 11.0 | 0.00 | 0.00 | 0.00 | 67 | 997.1 |
| 20260505024017 | 62 | 200 | 5.0 | 12.0 | 0.00 | 0.00 | 0.00 | 67 | 997.0 |
| 20260505023518 | 62 | 205 | 6.0 | 13.0 | 0.00 | 0.00 | 0.00 | 67 | 997.1 |
| 20260505023017 | 63 | 201 | 6.0 | 16.0 | 0.00 | 0.00 | 0.00 | 67 | 997.2 |
| 20260505022516 | 63 | 201 | 7.0 | 18.0 | 0.00 | 0.00 | 0.00 | 67 | 997.3 |
| 20260505022016 | 64 | 213 | 6.0 | 20.0 | 0.00 | 0.00 | 0.00 | 66 | 997.4 |
| 20260505021517 | 64 | 223 | 9.0 | 20.0 | 0.00 | 0.00 | 0.00 | 65 | 997.7 |
| 20260505021017 | 64 | 214 | 9.0 | 19.0 | 0.00 | 0.00 | 0.00 | 65 | 997.6 |
| 20260505020518 | 64 | 233 | 9.0 | 19.0 | 0.00 | 0.00 | 0.00 | 64 | 997.7 |
| 20260505020016 | 65 | 232 | 9.0 | 22.0 | 0.00 | 0.00 | 0.00 | 63 | 997.6 |
| 20260505015516 | 65 | 231 | 13.0 | 22.0 | 0.00 | 0.00 | 0.00 | 63 | 997.4 |
| 20260505015057 | 65 | 210 | 11.0 | 22.0 | 0.00 | 0.00 | 0.00 | 63 | 997.0 |
| 20260505014537 | 65 | 207 | 9.0 | 18.0 | 0.00 | 0.00 | 0.00 | 64 | 997.0 |
| 20260505014016 | 66 | 216 | 9.0 | 21.0 | 0.00 | 0.00 | 0.00 | 64 | 996.8 |
| 20260505013536 | 66 | 225 | 12.0 | 21.0 | 0.00 | 0.00 | 0.00 | 64 | 996.6 |
| 20260505013017 | 66 | 224 | 9.0 | 22.0 | 0.00 | 0.00 | 0.00 | 64 | 996.5 |
| 20260505012517 | 66 | 217 | 11.0 | 24.0 | 0.00 | 0.00 | 0.00 | 65 | 996.4 |
| 20260505012016 | 67 | 207 | 8.0 | 24.0 | 0.00 | 0.00 | 0.00 | 66 | 996.4 |
| 20260505011517 | 67 | 206 | 7.0 | 17.0 | 0.00 | 0.00 | 0.00 | 64 | 996.4 |
| 20260505011016 | 67 | 193 | 8.0 | 17.0 | 0.00 | 0.00 | 0.00 | 63 | 996.2 |
| 20260505010516 | 68 | 210 | 8.0 | 17.0 | 0.00 | 0.00 | 0.00 | 62 | 996.2 |
| 20260505010016 | 68 | 210 | 10.0 | 17.0 | 0.00 | 0.00 | 0.00 | 61 | 996.1 |
| 20260505005516 | 68 | 186 | 10.0 | 18.0 | 0.00 | 0.00 | 0.00 | 61 | 996.0 |
| 20260505005017 | 68 | 213 | 9.0 | 19.0 | 0.00 | 0.00 | 0.00 | 60 | 996.1 |
| 20260505004517 | 68 | 192 | 9.0 | 19.0 | 0.00 | 0.00 | 0.00 | 59 | 996.3 |
| 20260505004017 | 69 | 190 | 8.0 | 22.0 | 0.00 | 0.00 | 0.00 | 58 | 996.4 |
| 20260505003516 | 69 | 202 | 9.0 | 22.0 | 0.00 | 0.00 | 0.00 | 56 | 996.6 |
| 20260505003016 | 70 | 205 | 9.0 | 20.0 | 0.00 | 0.00 | 0.00 | 53 | 996.5 |
| 20260505002516 | 70 | 204 | 11.0 | 22.0 | 0.00 | 0.00 | 0.00 | 52 | 996.5 |
| 20260505002016 | 70 | 220 | 10.0 | 22.0 | 0.00 | 0.00 | 0.00 | 50 | 996.3 |
| 20260505001517 | 71 | 220 | 13.0 | 20.0 | 0.00 | 0.00 | 0.00 | 48 | 996.1 |
| 20260505001016 | 71 | 209 | 10.0 | 21.0 | 0.00 | 0.00 | 0.00 | 48 | 996.0 |
| 20260505000516 | 71 | 224 | 13.0 | 22.0 | 0.00 | 0.00 | 0.00 | 48 | 996.0 |
| 20260505000056 | 72 | 231 | 13.0 | 22.0 | 0.00 | 0.00 | 0.00 | 47 | 996.1 |
| 20260504235536 | 72 | 244 | 14.0 | 31.0 | 0.00 | 0.00 | 0.00 | 46 | 996.1 |
| 20260504235016 | 73 | 240 | 14.0 | 31.0 | 0.00 | 0.00 | 0.00 | 39 | 996.1 |
| 20260504234516 | 73 | 227 | 9.0 | 15.0 | 0.00 | 0.00 | 0.00 | 38 | 996.1 |
| 20260504234017 | 73 | 211 | 6.0 | 14.0 | 0.00 | 0.00 | 0.00 | 39 | 996.1 |
| 20260504233516 | 73 | 217 | 4.0 | 11.0 | 0.00 | 0.00 | 0.00 | 39 | 996.0 |
| 20260504233016 | 73 | 231 | 6.0 | 11.0 | 0.00 | 0.00 | 0.00 | 38 | 996.0 |
| 20260504232516 | 73 | 231 | 7.0 | 12.0 | 0.00 | 0.00 | 0.00 | 38 | 996.1 |
| 20260504232016 | 73 | 232 | 7.0 | 14.0 | 0.00 | 0.00 | 0.00 | 37 | 996.1 |
| 20260504231518 | 73 | 226 | 8.0 | 14.0 | 0.00 | 0.00 | 0.00 | 37 | 996.2 |
| 20260504231016 | 73 | 240 | 8.0 | 15.0 | 0.00 | 0.00 | 0.00 | 37 | 996.3 |
| 20260504230518 | 73 | 226 | 9.0 | 15.0 | 0.00 | 0.00 | 0.00 | 37 | 996.3 |
| 20260504230016 | 74 | 234 | 9.0 | 18.0 | 0.00 | 0.00 | 0.00 | 37 | 996.4 |
| 20260504225516 | 74 | 240 | 11.0 | 18.0 | 0.00 | 0.00 | 0.00 | 36 | 996.4 |
| 20260504225016 | 74 | 229 | 10.0 | 18.0 | 0.00 | 0.00 | 0.00 | 36 | 996.6 |
| 20260504224536 | 74 | 228 | 9.0 | 15.0 | 0.00 | 0.00 | 0.00 | 37 | 996.6 |
| 20260504224016 | 74 | 230 | 8.0 | 13.0 | 0.00 | 0.00 | 0.00 | 37 | 996.7 |
| 20260504223517 | 74 | 243 | 8.0 | 15.0 | 0.00 | 0.00 | 0.00 | 37 | 996.8 |
| 20260504223016 | 74 | 249 | 8.0 | 17.0 | 0.00 | 0.00 | 0.00 | 36 | 996.8 |
| 20260504222516 | 74 | 244 | 11.0 | 17.0 | 0.00 | 0.00 | 0.00 | 36 | 996.9 |
| 20260504222016 | 74 | 252 | 11.0 | 20.0 | 0.00 | 0.00 | 0.00 | 37 | 996.9 |
| 20260504221536 | 74 | 250 | 14.0 | 22.0 | 0.00 | 0.00 | 0.00 | 36 | 996.9 |
| 20260504221016 | 74 | 259 | 11.0 | 22.0 | 0.00 | 0.00 | 0.00 | 36 | 996.9 |
| 20260504220516 | 74 | 237 | 13.0 | 22.0 | 0.00 | 0.00 | 0.00 | 36 | 997.0 |
| 20260504220016 | 74 | 234 | 12.0 | 22.0 | 0.00 | 0.00 | 0.00 | 37 | 997.0 |
| 20260504215536 | 74 | 237 | 10.0 | 21.0 | 0.00 | 0.00 | 0.00 | 37 | 997.0 |
| 20260504215016 | 74 | 248 | 13.0 | 21.0 | 0.00 | 0.00 | 0.00 | 37 | 997.1 |
| 20260504214516 | 74 | 251 | 10.0 | 19.0 | 0.00 | 0.00 | 0.00 | 37 | 997.1 |
| 20260504214016 | 74 | 260 | 12.0 | 22.0 | 0.00 | 0.00 | 0.00 | 35 | 997.2 |
| 20260504213517 | 74 | 247 | 14.0 | 22.0 | 0.00 | 0.00 | 0.00 | 37 | 997.3 |
| 20260504213016 | 74 | 238 | 13.0 | 23.0 | 0.00 | 0.00 | 0.00 | 36 | 997.4 |
| 20260504212536 | 74 | 242 | 14.0 | 23.0 | 0.00 | 0.00 | 0.00 | 35 | 997.5 |
| 20260504212016 | 73 | 239 | 14.0 | 27.0 | 0.00 | 0.00 | 0.00 | 37 | 997.5 |
| 20260504211016 | 73 | 245 | 16.0 | 31.0 | 0.00 | 0.00 | 0.00 | 37 | 997.7 |
| 20260504210516 | 74 | 249 | 14.0 | 22.0 | 0.00 | 0.00 | 0.00 | 36 | 997.8 |
| 20260504210016 | 74 | 240 | 10.0 | 27.0 | 0.00 | 0.00 | 0.00 | 38 | 997.9 |
| 20260504205637 | 74 | 243 | 14.0 | 27.0 | 0.00 | 0.00 | 0.00 | 37 | 998.0 |
| 20260504205016 | 74 | 242 | 11.0 | 23.0 | 0.00 | 0.00 | 0.00 | 38 | 998.1 |
| 20260504204516 | 73 | 257 | 15.0 | 30.0 | 0.00 | 0.00 | 0.00 | 37 | 998.1 |
| 20260504204016 | 73 | 243 | 18.0 | 30.0 | 0.00 | 0.00 | 0.00 | 36 | 998.2 |
| 20260504203516 | 74 | 263 | 17.0 | 31.0 | 0.00 | 0.00 | 0.00 | 34 | 998.1 |
| 20260504203036 | 74 | 268 | 18.0 | 35.0 | 0.00 | 0.00 | 0.00 | 34 | 998.3 |
| 20260504202517 | 74 | 246 | 18.0 | 35.0 | 0.00 | 0.00 | 0.00 | 34 | 998.4 |
| 20260504202017 | 74 | 252 | 14.0 | 27.0 | 0.00 | 0.00 | 0.00 | 33 | 998.5 |
| 20260504201516 | 74 | 235 | 15.0 | 26.0 | 0.00 | 0.00 | 0.00 | 34 | 998.5 |
| 20260504201016 | 74 | 245 | 14.0 | 29.0 | 0.00 | 0.00 | 0.00 | 34 | 998.4 |
| 20260504200516 | 73 | 249 | 18.0 | 29.0 | 0.00 | 0.00 | 0.00 | 33 | 998.4 |
| 20260504200036 | 74 | 247 | 14.0 | 23.0 | 0.00 | 0.00 | 0.00 | 34 | 998.4 |
| 20260504195516 | 74 | 230 | 14.0 | 22.0 | 0.00 | 0.00 | 0.00 | 32 | 998.5 |
| 20260504195056 | 74 | 227 | 15.0 | 22.0 | 0.00 | 0.00 | 0.00 | 32 | 998.5 |
| 20260504194516 | 74 | 241 | 13.0 | 24.0 | 0.00 | 0.00 | 0.00 | 32 | 998.5 |
| 20260504194016 | 74 | 251 | 14.0 | 24.0 | 0.00 | 0.00 | 0.00 | 33 | 998.7 |
| 20260504193517 | 74 | 237 | 14.0 | 22.0 | 0.00 | 0.00 | 0.00 | 32 | 998.6 |
| 20260504193016 | 74 | 233 | 10.0 | 27.0 | 0.00 | 0.00 | 0.00 | 34 | 998.6 |
| 20260504192516 | 74 | 233 | 14.0 | 28.0 | 0.00 | 0.00 | 0.00 | 32 | 998.8 |
| 20260504192017 | 73 | 227 | 16.0 | 28.0 | 0.00 | 0.00 | 0.00 | 31 | 998.8 |
| 20260504191537 | 73 | 240 | 16.0 | 25.0 | 0.00 | 0.00 | 0.00 | 34 | 998.8 |
| 20260504191016 | 73 | 235 | 13.0 | 25.0 | 0.00 | 0.00 | 0.00 | 35 | 998.8 |
| 20260504190537 | 73 | 240 | 17.0 | 25.0 | 0.00 | 0.00 | 0.00 | 33 | 998.8 |
| 20260504190016 | 74 | 235 | 14.0 | 25.0 | 0.00 | 0.00 | 0.00 | 32 | 998.8 |
| 20260504185519 | 74 | 212 | 12.0 | 25.0 | 0.00 | 0.00 | 0.00 | 34 | 998.8 |
| 20260504185017 | 74 | 238 | 15.0 | 25.0 | 0.00 | 0.00 | 0.00 | 32 | 998.8 |
| 20260504184516 | 73 | 241 | 14.0 | 25.0 | 0.00 | 0.00 | 0.00 | 30 | 998.8 |
| 20260504184017 | 74 | 223 | 12.0 | 26.0 | 0.00 | 0.00 | 0.00 | 29 | 998.9 |
| 20260504183516 | 73 | 232 | 16.0 | 26.0 | 0.00 | 0.00 | 0.00 | 29 | 999.0 |
| 20260504183017 | 74 | 235 | 15.0 | 29.0 | 0.00 | 0.00 | 0.00 | 29 | 999.0 |
| 20260504182516 | 74 | 210 | 13.0 | 29.0 | 0.00 | 0.00 | 0.00 | 31 | 999.0 |
| 20260504182015 | 74 | 202 | 11.0 | 23.0 | 0.00 | 0.00 | 0.00 | 32 | 999.0 |
| 20260504181516 | 73 | 205 | 12.0 | 24.0 | 0.00 | 0.00 | 0.00 | 31 | 999.0 |
| 20260504181015 | 73 | 210 | 11.0 | 24.0 | 0.00 | 0.00 | 0.00 | 32 | 999.1 |
| 20260504180537 | 72 | 239 | 13.0 | 22.0 | 0.00 | 0.00 | 0.00 | 31 | 999.1 |
| 20260504180016 | 73 | 225 | 13.0 | 21.0 | 0.00 | 0.00 | 0.00 | 30 | 999.2 |
| 20260504175516 | 73 | 233 | 13.0 | 21.0 | 0.00 | 0.00 | 0.00 | 30 | 999.2 |
| 20260504175015 | 73 | 218 | 11.0 | 22.0 | 0.00 | 0.00 | 0.00 | 33 | 999.2 |
| 20260504174517 | 72 | 230 | 13.0 | 23.0 | 0.00 | 0.00 | 0.00 | 31 | 999.3 |
| 20260504174016 | 73 | 218 | 12.0 | 28.0 | 0.00 | 0.00 | 0.00 | 31 | 999.4 |
| 20260504173516 | 72 | 220 | 14.0 | 28.0 | 0.00 | 0.00 | 0.00 | 30 | 999.4 |
| 20260504173016 | 72 | 235 | 12.0 | 17.0 | 0.00 | 0.00 | 0.00 | 31 | 999.5 |
| 20260504172556 | 72 | 228 | 9.0 | 27.0 | 0.00 | 0.00 | 0.00 | 32 | 999.6 |
| 20260504172015 | 72 | 233 | 13.0 | 27.0 | 0.00 | 0.00 | 0.00 | 30 | 999.7 |
| 20260504171537 | 72 | 232 | 11.0 | 22.0 | 0.00 | 0.00 | 0.00 | 31 | 999.7 |
| 20260504171015 | 72 | 227 | 12.0 | 22.0 | 0.00 | 0.00 | 0.00 | 30 | 1000.0 |
| 20260504170535 | 72 | 211 | 12.0 | 21.0 | 0.00 | 0.00 | 0.00 | 31 | 999.9 |
| 20260504151015 | 65 | 223 | 9.0 | 22.0 | 0.00 | 0.00 | 0.00 | 49 | 1001.2 |
| 20260504150515 | 65 | 226 | 10.0 | 22.0 | 0.00 | 0.00 | 0.00 | 51 | 1001.2 |
| 20260504141015 | 60 | 217 | 6.0 | 13.0 | 0.00 | 0.00 | 0.00 | 62 | 1001.9 |
| 20260504140515 | 60 | 218 | 5.0 | 11.0 | 0.00 | 0.00 | 0.00 | 63 | 1001.9 |
| 20260504130515 | 55 | 235 | 8.0 | 14.0 | 0.00 | 0.00 | 0.00 | 72 | 1002.4 |
| 20260504130155 | 54 | 243 | 6.0 | 14.0 | 0.00 | 0.00 | 0.00 | 73 | 1002.5 |
| 20260504110557 | 45 | 209 | 2.0 | 5.0 | 0.00 | 0.00 | 0.00 | 88 | 1002.1 |
| 20260504100517 | 45 | 0.0 | 0.0 | 0.00 | 0.00 | 0.00 | 85 | 1001.9 | |
| 20260504081518 | 48 | 157 | 1.0 | 2.0 | 0.00 | 0.00 | 0.00 | 79 | 1002.6 |
| 20260504081037 | 48 | 170 | 0.0 | 2.0 | 0.00 | 0.00 | 0.00 | 79 | 1002.6 |
| 20260504080516 | 49 | 183 | 0.0 | 4.0 | 0.00 | 0.00 | 0.00 | 78 | 1002.6 |